[[{"header":{"parameterUnit":"m.s-1","parameterCategory":1,"la1":30.2991,"la2":30.254,"lo1":-89.0895,"lo2":-89.0444,"dy":0.0017,"dx":0.0017,"nx":28,"ny":28,"refTime":"2024-03-10T03:00:00:Z","depth":0,"parameterNumber":2,"parameterNumberName":"U-component_of_WINDS"},"data":[0,0,0,0,0,0,0,0,0,0,0,0,0,0,0,0,0,0,0,0,0,0,0,0,0,0,0,0,0,0,0,0,0,0,0,0,0,0,0,0,0,0,0,0,0,0,0,0,0,0,0,0,0,0,0,0,0,0,-0.9988,-0.9987,0,-0.9887,-0.9886,-0.9885,-0.9764,-0.9762,-0.976,-0.9759,-0.9657,-0.9656,-0.9655,0,0,0,0,0,0,0,0,0,0,0,0,0,-1.008,-1.0079,-0.9988,-0.9987,-0.9986,-0.9887,-0.9886,-0.9884,-0.9764,-0.9762,-0.976,-0.9758,-0.9657,-0.9656,-0.9655,0,0,0,0,0,0,0,0,0,0,0,0,0,-1.0016,-1.0079,-0.9988,-0.9914,-0.9906,-0.9888,-0.9886,-0.9884,-0.9765,-0.9762,-0.9759,-0.9757,-0.9658,-0.9656,-0.9655,-0.9702,0,0,-0.9651,-0.965,0,0,0,0,0,0,0,0,-1.002,-1.0013,-0.9926,-0.9919,-0.991,-0.9835,-0.9881,-0.9823,-0.9766,-0.9819,-0.9759,-0.9755,-0.9719,-0.9712,-0.9699,-0.9697,-0.9693,-0.965,-0.965,-0.9649,-0.9648,0,0,0,0,0,0,0,-1.0024,-1.0016,-0.9948,-0.9925,-0.9915,-0.9886,-0.9874,-0.9869,-0.9786,-0.9814,-0.9805,-0.9794,-0.9714,-0.9701,-0.9696,-0.9691,-0.965,-0.9649,-0.9648,-0.9648,-0.9725,-0.9727,0,0,0,0,0,0,-1.004,-1.0021,-0.9951,-0.9945,-0.9959,-0.9887,-0.9873,-0.9862,-0.9785,-0.9771,-0.9797,-0.9789,-0.9705,-0.9698,-0.9692,-0.9743,-0.9649,-0.9648,-0.9647,-0.9722,-0.9725,-0.9728,0,0,0,0,0,0,-1.0042,-1.0035,-0.9955,-0.998,-0.9968,-0.9888,-0.9877,-0.9862,-0.9849,-0.9773,-0.9757,-0.9799,-0.9702,-0.9694,-0.9701,-0.9738,-0.9647,-0.9646,-0.9718,-0.9723,-0.9727,-0.9846,0,0,0,0,0,0,-1.0045,-1.0036,-1.0053,-0.9982,-0.9967,-0.9965,-0.9879,-0.9862,-0.9846,-0.9835,-0.977,-0.9757,-0.97,-0.9704,-0.9699,-0.9734,-0.9644,-0.9715,-0.972,-0.9725,-0.9838,-0.9854,-0.9867,0,0,0,0,0,-1.0049,-1.009,-1.0054,-1.0046,-0.9986,-0.9968,-0.996,-0.9892,-0.985,-0.9866,-0.9817,-0.9759,-0.9735,-0.9705,-0.9699,-0.9735,-0.9712,-0.9719,-0.9725,-0.9832,-0.9851,-0.9867,0,0,0,0,0,0,-1.0168,-1.0079,-1.0038,-1.0058,-1.0021,-0.9947,-0.9966,-0.9914,-0.9889,-0.988,-0.9798,-0.9784,-0.9801,-0.9768,-0.9737,-0.9777,-0.9715,-0.9721,-0.9798,-0.9815,-0.983,-0.9838,-0.9643,0,0,0,0,0,-1.0196,-1.0188,-1.0111,-1.0136,-1.012,-1.0047,-1.0036,-0.9987,-0.9946,-0.993,-0.9882,-0.9845,-0.9829,-0.982,-0.9801,-0.9833,-0.9818,-0.9854,-0.9869,-0.9881,-0.9887,-0.9903,-0.9919,-0.975,-0.975,-0.975,0,0,-1.0255,-1.0206,-1.0206,-1.0159,-1.0125,-1.0119,-1.0034,-1.0031,-1.0027,-0.993,-0.9933,-0.9897,-0.985,-0.987,-0.9877,-0.9843,-0.9931,-0.9889,-0.99,-0.9899,-0.9912,-0.9928,-0.9942,-0.9754,-0.9753,-0.9753,0,0,-1.036,-1.0321,-1.0338,-1.0306,-1.0255,-1.0206,-1.021,-1.0144,-1.0117,-1.0118,-1.0046,-1.004,-1.0013,-0.9984,-0.9965,-1.006,-1.0006,-1.0056,-1.0132,-1.0149,-1.0162,-1.0173,-1.0209,-1.0222,-1.0063,-1.0063,-1.0063,0,-1.0439,-1.0427,-1.0353,-1.0355,-1.0338,-1.0249,-1.0267,-1.0239,-1.0185,-1.0176,-1.0139,-1.0105,-1.0067,-1.008,-1.0103,-1.0091,-1.0094,-1.0064,-1.0166,-1.0177,-1.0186,-1.0219,-1.0232,-1.0069,-1.0069,-1.0068,-1.0067,0,-1.0529,-1.0522,-1.0541,-1.0492,-1.0476,-1.0486,-1.0415,-1.0408,-1.0361,-1.0316,-1.0321,-1.0272,-1.0243,-1.0242,-1.0196,-1.0248,-1.023,-1.0181,-1.0117,-1.021,-1.024,-1.0252,-1.0079,-1.0076,-1.0074,-1.0073,0,0,-1.0705,-1.0615,-1.0624,-1.0601,-1.0539,-1.0532,-1.0539,-1.0509,-1.0506,-1.0472,-1.0477,-1.0457,-1.0412,-1.0391,-1.0341,-1.0355,-1.0436,-1.0304,-1.0302,-1.0332,-1.0493,-1.0531,-1.0547,-1.0399,-1.0401,-1.0403,-1.0497,0,-1.08,-1.0805,-1.0739,-1.0763,-1.0757,-1.0673,-1.0679,-1.0643,-1.0601,-1.0591,-1.0545,-1.0533,-1.0473,-1.046,-1.0471,-1.0424,-1.0467,-1.0416,-1.0404,-1.0404,-1.042,-1.0562,-1.0602,-1.0694,-1.0508,-1.051,-1.0511,0,-1.091,-1.0883,-1.0906,-1.0844,-1.0839,-1.0846,-1.0814,-1.0804,-1.0762,-1.0731,-1.0709,-1.0651,-1.0655,-1.0594,-1.0598,-1.0565,-1.0556,-1.0532,-1.0534,-1.0531,-1.0465,-1.0565,-1.0721,-1.0735,-1.0529,-1.0527,-1.0526,0,-1.1039,-1.1008,-1.1018,-1.1,-1.0928,-1.0935,-1.0906,-1.086,-1.0847,-1.082,-1.0811,-1.0785,-1.0771,-1.0753,-1.069,-1.0651,-1.0703,-1.0636,-1.0679,-1.0681,-1.0694,-1.0694,-1.0853,-1.0687,-1.0686,-1.0686,-1.0686,0,-1.1152,-1.117,-1.1075,-1.1081,-1.1099,-1.1024,-1.1045,-1.1007,-1.0968,-1.0966,-1.0892,-1.0893,-1.081,-1.0801,-1.0753,-1.0765,-1.0759,-1.0735,-1.0722,-1.0742,-1.0746,-1.0736,-1.0729,-1.069,-1.0689,-1.0688,-1.0688,0,-1.1299,-1.1235,-1.1241,-1.1173,-1.1156,-1.1173,-1.1115,-1.1118,-1.1073,-1.1072,-1.1068,-1.0997,-1.0983,-1.0919,-1.089,-1.0858,-1.0887,-1.086,-1.0902,-1.0894,-1.0941,-1.0938,-1.1099,-1.1118,-1.0939,-1.0941,-1.0943,0,-1.1375,-1.1387,-1.132,-1.1314,-1.1288,-1.1278,-1.1265,-1.1192,-1.1181,-1.1134,-1.1144,-1.1125,-1.1105,-1.1088,-1.1034,-1.1012,-1.0985,-1.1044,-1.0982,-1.1002,-1.0988,-1.0989,-1.099,-1.1058,-1.106,-1.1062,-1.1063,0,-1.1519,-1.1488,-1.1471,-1.1444,-1.143,-1.1405,-1.1375,-1.1375,-1.1293,-1.1286,-1.1271,-1.1256,-1.1227,-1.1209,-1.1178,-1.1148,-1.1094,-1.1083,-1.1092,-1.1114,-1.1138,-1.1127,-1.094,-1.108,-1.1078,-1.1077,-1.1076,-1.1075,-1.1634,-1.1641,-1.1596,-1.158,-1.155,-1.1525,-1.1526,-1.148,-1.1467,-1.1437,-1.1395,-1.1386,-1.1345,-1.1298,-1.1273,-1.1266,-1.1234,-1.1247,-1.125,-1.1255,-1.1266,-1.1138,-1.126,-1.1259,-1.1258,-1.1258,-1.1258,0,-1.1775,-1.1742,-1.1728,-1.169,-1.1678,-1.1626,-1.1591,-1.1585,-1.1578,-1.1544,-1.1526,-1.151,-1.1493,-1.1438,-1.1416,-1.1421,-1.1395,-1.1417,-1.1417,-1.1411,-1.1294,-1.129,-1.1439,-1.1439,-1.1439,-1.1439,-1.1439,-1.1439,-1.1847,-1.1857,-1.1821,-1.1816,-1.1783,-1.1773,-1.1758,-1.1735,-1.1707,-1.1693,-1.1678,-1.1642,-1.16,-1.1574,-1.1557,-1.1541,-1.1537,-1.1568,-1.1545,-1.1437,-1.1419,-1.1403,-1.1398,-1.1567,-1.1568,-1.1662,-1.1663,-1.1664]},{"header":{"parameterUnit":"m.s-1","parameterCategory":1,"la1":30.2991,"la2":30.254,"lo1":-89.0895,"lo2":-89.0444,"dy":0.0017,"dx":0.0017,"nx":28,"ny":28,"refTime":"2024-03-10T03:00:00:Z","depth":0,"parameterNumber":3,"parameterNumberName":"V-component_of_WINDS"},"data":[0,0,0,0,0,0,0,0,0,0,0,0,0,0,0,0,0,0,0,0,0,0,0,0,0,0,0,0,0,0,0,0,0,0,0,0,0,0,0,0,0,0,0,0,0,0,0,0,0,0,0,0,0,0,0,0,0,0,1.8287,1.8287,0,1.8251,1.825,1.825,1.8267,1.8268,1.8269,1.827,1.8226,1.8224,1.8222,0,0,0,0,0,0,0,0,0,0,0,0,0,1.8366,1.8365,1.8287,1.8287,1.8287,1.8251,1.825,1.825,1.8267,1.8268,1.8269,1.827,1.8226,1.8224,1.8221,0,0,0,0,0,0,0,0,0,0,0,0,0,1.8331,1.8364,1.8287,1.8291,1.8291,1.8251,1.825,1.825,1.8266,1.8268,1.8269,1.8271,1.8227,1.8224,1.8221,1.8174,0,0,1.8212,1.821,0,0,0,0,0,0,0,0,1.8333,1.8328,1.8291,1.829,1.829,1.8265,1.8262,1.8224,1.8266,1.8275,1.827,1.8271,1.8237,1.8233,1.8223,1.8172,1.817,1.8211,1.821,1.8208,1.8207,0,0,0,0,0,0,0,1.8335,1.8329,1.8273,1.829,1.829,1.8292,1.8289,1.8255,1.8249,1.8275,1.8276,1.8272,1.8237,1.8226,1.8222,1.8169,1.8212,1.8209,1.8207,1.8206,1.8077,1.8075,0,0,0,0,0,0,1.8338,1.8331,1.8274,1.8272,1.8316,1.829,1.8286,1.8272,1.8249,1.8247,1.8271,1.8273,1.8231,1.8226,1.8221,1.8163,1.8208,1.8205,1.8204,1.8078,1.8076,1.8075,0,0,0,0,0,0,1.834,1.8333,1.8275,1.8302,1.8295,1.8287,1.8271,1.827,1.8259,1.8246,1.8244,1.8261,1.8232,1.8225,1.8186,1.8162,1.8204,1.8201,1.808,1.8078,1.8076,1.8048,0,0,0,0,0,0,1.8342,1.8334,1.8317,1.8302,1.8293,1.8243,1.8269,1.8268,1.8255,1.8257,1.8236,1.8234,1.8232,1.819,1.8183,1.8158,1.8199,1.8082,1.8079,1.8076,1.8051,1.8045,1.804,0,0,0,0,0,1.8345,1.8309,1.8316,1.8309,1.8273,1.8241,1.8236,1.8237,1.8253,1.8235,1.8226,1.8235,1.8167,1.8186,1.8178,1.8152,1.8084,1.808,1.8077,1.8053,1.8046,1.804,0,0,0,0,0,0,1.832,1.8307,1.8314,1.8273,1.8259,1.8244,1.8222,1.8229,1.8208,1.821,1.821,1.8205,1.8164,1.8155,1.8177,1.8105,1.8127,1.8122,1.8112,1.8105,1.81,1.8102,1.8196,0,0,0,0,0,1.831,1.8287,1.8277,1.8241,1.8234,1.8229,1.8216,1.8217,1.8201,1.8194,1.8183,1.8165,1.8139,1.8122,1.8098,1.8051,1.8045,1.8029,1.8023,1.8019,1.8013,1.7986,1.7978,1.8063,1.8063,1.8063,0,0,1.8288,1.8278,1.8264,1.8236,1.8225,1.82,1.8224,1.8196,1.8176,1.8189,1.8152,1.8143,1.8123,1.8079,1.8059,1.807,1.7989,1.8014,1.8011,1.8008,1.7982,1.7974,1.7966,1.8061,1.8061,1.8061,0,0,1.8235,1.8227,1.8196,1.8185,1.8168,1.8165,1.8158,1.8143,1.8138,1.8101,1.811,1.8086,1.8043,1.8028,1.8014,1.7957,1.7963,1.795,1.7919,1.7893,1.7886,1.788,1.7858,1.785,1.7945,1.7944,1.7944,0,1.8209,1.8173,1.8178,1.815,1.8137,1.815,1.8118,1.8106,1.8081,1.8071,1.8084,1.803,1.8017,1.797,1.7956,1.7945,1.7935,1.795,1.7887,1.7881,1.7876,1.7854,1.7846,1.7943,1.7943,1.7943,1.7943,0,1.8142,1.8117,1.8093,1.8072,1.8056,1.8026,1.8024,1.8008,1.8012,1.8007,1.7968,1.7954,1.7927,1.7916,1.7919,1.7869,1.7876,1.7888,1.791,1.7866,1.7845,1.7837,1.794,1.7941,1.7941,1.7942,0,0,1.8069,1.8052,1.8043,1.8033,1.8017,1.7997,1.7967,1.7943,1.7927,1.791,1.7884,1.7847,1.7859,1.7844,1.7845,1.7822,1.7775,1.7837,1.7836,1.7824,1.7717,1.7706,1.7697,1.7781,1.7779,1.7778,1.7718,0,1.8013,1.7963,1.7967,1.7918,1.7894,1.7907,1.7881,1.7867,1.7862,1.7839,1.7833,1.7807,1.7825,1.7816,1.7795,1.7786,1.7754,1.7791,1.7753,1.7752,1.7755,1.7687,1.7675,1.7619,1.7711,1.7709,1.7708,0,1.7941,1.7924,1.7873,1.7861,1.7851,1.7827,1.7805,1.7784,1.7768,1.7766,1.775,1.7755,1.7723,1.7748,1.7702,1.7727,1.7712,1.7706,1.7704,1.7698,1.7725,1.7676,1.7601,1.7592,1.7696,1.7697,1.7698,0,1.7891,1.7855,1.782,1.7811,1.7796,1.7779,1.7771,1.7757,1.7742,1.7723,1.7713,1.7689,1.7675,1.7656,1.7653,1.7672,1.7606,1.7632,1.7601,1.7601,1.7585,1.7585,1.7503,1.7579,1.758,1.758,1.758,0,1.7827,1.7794,1.7797,1.7775,1.7739,1.7744,1.7708,1.7702,1.7689,1.7665,1.7675,1.7651,1.7651,1.7627,1.7625,1.7586,1.758,1.7576,1.7575,1.7573,1.7573,1.7561,1.7564,1.7578,1.7578,1.7578,1.7579,0,1.7763,1.7764,1.7726,1.7716,1.7712,1.7686,1.7676,1.7654,1.7652,1.762,1.7613,1.7608,1.758,1.7577,1.7543,1.7542,1.7494,1.7499,1.75,1.75,1.7469,1.7471,1.7374,1.7361,1.7449,1.7448,1.7447,0,1.7721,1.7697,1.7684,1.767,1.7662,1.7638,1.7624,1.7628,1.7612,1.7592,1.7572,1.7546,1.7524,1.7478,1.747,1.7444,1.7447,1.7415,1.7442,1.7441,1.7443,1.7444,1.744,1.7408,1.7407,1.7406,1.7406,0,1.7645,1.7647,1.7627,1.7606,1.7589,1.7573,1.7558,1.7545,1.7547,1.7528,1.7501,1.7485,1.7452,1.7424,1.7399,1.7389,1.7396,1.7398,1.7389,1.7385,1.7386,1.7383,1.7483,1.7399,1.74,1.74,1.74,1.7401,1.7589,1.7568,1.7556,1.7533,1.7523,1.7508,1.7487,1.7483,1.7461,1.7436,1.7439,1.7408,1.7392,1.736,1.7348,1.7323,1.7333,1.7321,1.7317,1.7313,1.7309,1.7393,1.7318,1.7318,1.7319,1.7319,1.7319,0,1.7511,1.7505,1.7484,1.7464,1.7445,1.7458,1.7442,1.7424,1.7398,1.7384,1.7363,1.7331,1.7305,1.7295,1.7269,1.725,1.7253,1.7243,1.7243,1.724,1.7303,1.7312,1.7241,1.7241,1.7241,1.7241,1.7241,1.7241,1.7469,1.7433,1.7434,1.7393,1.7387,1.7358,1.7347,1.7334,1.7323,1.7287,1.7266,1.7261,1.7248,1.7222,1.7197,1.7195,1.7184,1.7172,1.717,1.7228,1.7236,1.7243,1.7252,1.717,1.717,1.711,1.7109,1.7109]}]]